This demonstration page uses our WeatherBlox Daily Observations layout. Learn more.

Left ArrowRight Arrow

39.01783, -85.05884

Hourly Observations for June 24, 2018

Temp ( °F °C ) Dew Point ( °F °C ) Humidity (%) Winds ( mph kmh ) Pressure ( in mb ) Visibility ( mi km ) Precip ( " mm )
12:52 am 00:52 Partly Cloudy 68 20 64 17.8 87 87 SSW 5 7 29.84 1011 10 16 N/A
1:52 am 01:52 Mostly Cloudy 68 20 64 17.8 87 87 SSW 3 6 29.84 1011 10 16 N/A
2:52 am 02:52 Partly Cloudy 67 19.4 64 17.8 91 91 W 3 6 29.84 1011 8 13 N/A
3:52 am 03:52 Clear 65 18.3 63 17.2 93 93 N N/A 29.84 1011 10 16 N/A
4:52 am 04:52 Partly Cloudy 63 17.2 62 16.7 97 97 S 3 6 29.84 1011 10 16 N/A
5:52 am 05:52 Mostly Cloudy 64 17.8 62 16.7 93 93 S 3 6 29.85 1011 10 16 N/A
6:52 am 06:52 Mostly Cloudy 67 19.4 64 17.8 91 91 N N/A 29.88 1012 10 16 N/A
7:52 am 07:52 Partly Cloudy 69 20.6 66 18.9 90 90 SW 3 6 29.88 1012 7 11 N/A
8:52 am 08:52 Mostly Sunny 74 23.3 66 18.9 76 76 W 6 9 29.88 1012 10 16 N/A
9:52 am 09:52 Partly Cloudy 75 23.9 65 18.3 71 71 W 7 11 29.91 1013 10 16 N/A
10:52 am 10:52 Partly Cloudy 79 26.1 65 18.3 62 62 W 13 20 29.92 1013 10 16 N/A
11:52 am 11:52 Partly Cloudy 80 26.7 63 17.2 56 56 W 10 17 29.94 1014 10 16 N/A
12:52 pm 12:52 Partly Cloudy 80 26.7 63 17.2 56 56 WNW 14 22 29.93 1014 10 16 N/A
1:52 pm 13:52 Partly Cloudy 82 27.8 63 17.2 53 53 W 10 17 29.95 1014 10 16 N/A
2:52 pm 14:52 Partly Cloudy 83 28.3 63 17.2 51 51 WNW 12 19 29.95 1014 10 16 N/A
3:52 pm 15:52 Partly Cloudy 81 27.2 62 16.7 53 53 W 8 13 29.95 1014 10 16 N/A
4:52 pm 16:52 Partly Cloudy 82 27.8 62 16.7 51 51 NW 12 19 29.95 1014 10 16 N/A
5:52 pm 17:52 Mostly Cloudy 84 28.9 62 16.7 48 48 NW 12 19 29.95 1014 10 16 N/A
6:52 pm 18:52 Mostly Cloudy 83 28.3 62 16.7 49 49 WNW 7 11 29.96 1014 10 16 N/A
7:52 pm 19:52 Mostly Cloudy 81 27.2 63 17.2 54 54 N 7 11 29.93 1014 10 16 N/A
8:52 pm 20:52 Mostly Cloudy 78 25.6 64 17.8 62 62 WNW 5 7 29.95 1014 10 16 N/A
9:52 pm 21:52 Mostly Cloudy 76 24.4 65 18.3 69 69 W 6 9 29.98 1015 10 16 N/A
10:52 pm 22:52 Cloudy 77 25 65 18.3 66 66 NNW 7 11 29.98 1015 10 16 N/A
11:52 pm 23:52 Cloudy 76 24.4 65 18.3 69 69 N 5 7 29.98 1015 10 16 N/A

Powered by AerisWeather